[[{"header":{"parameterUnit":"m.s-1","parameterCategory":2,"la1":30.2991,"la2":30.254,"lo1":-89.0895,"lo2":-89.0444,"dy":0.0017,"dx":0.0017,"nx":28,"ny":28,"refTime":"2023-09-07T09:00:00:Z","depth":"0","parameterNumber":2,"parameterNumberName":"U-component_of_CURRENTS"},"data":[0,0,0,0,0,0,0,0,0,0,0,0,0,0,0,0,0,0,0,0,0,0,0,0,0,0,0,0,0,0,0,0,0,0,0,0,0,0,0,0,0,0,0,0,0,0,0,0,0,0,0,0,0,0,0,0,0,0,-0.1963,-0.1964,0,-0.1973,-0.1972,-0.1972,-0.1881,-0.1879,-0.1877,-0.1874,-0.1754,-0.1753,-0.1752,0,0,0,0,0,0,0,0,0,0,0,0,0,-0.185,-0.1852,-0.1963,-0.1964,-0.1964,-0.1973,-0.1972,-0.1972,-0.1881,-0.1879,-0.1876,-0.1873,-0.1755,-0.1753,-0.1752,0,0,0,0,0,0,0,0,0,0,0,0,0,-0.188,-0.1853,-0.1963,-0.1922,-0.1919,-0.1973,-0.1972,-0.1972,-0.1882,-0.1879,-0.1875,-0.1872,-0.1755,-0.1754,-0.1752,-0.1808,0,0,-0.1747,-0.1746,0,0,0,0,0,0,0,0,-0.1878,-0.1884,-0.1928,-0.1925,-0.1921,-0.1925,-0.1888,-0.1912,-0.1883,-0.1893,-0.1874,-0.187,-0.1804,-0.1798,-0.1805,-0.1803,-0.1798,-0.1747,-0.1746,-0.1745,-0.1744,0,0,0,0,0,0,0,-0.1876,-0.1883,-0.1964,-0.1929,-0.1925,-0.1898,-0.1898,-0.1893,-0.1862,-0.1891,-0.1886,-0.1893,-0.18,-0.1807,-0.1801,-0.1796,-0.1747,-0.1745,-0.1744,-0.1743,-0.1806,-0.1809,0,0,0,0,0,0,-0.1887,-0.1882,-0.1963,-0.1964,-0.1895,-0.1903,-0.1903,-0.1925,-0.1865,-0.1854,-0.1896,-0.1889,-0.1811,-0.1803,-0.1796,-0.1827,-0.1745,-0.1743,-0.1742,-0.1804,-0.1807,-0.181,0,0,0,0,0,0,-0.1885,-0.1895,-0.1963,-0.1924,-0.1931,-0.1909,-0.1933,-0.1927,-0.1923,-0.187,-0.1855,-0.1897,-0.1808,-0.1798,-0.1792,-0.1822,-0.1743,-0.1741,-0.1801,-0.1805,-0.1809,-0.1909,0,0,0,0,0,0,-0.1882,-0.1895,-0.1913,-0.1926,-0.1934,-0.1994,-0.1937,-0.1929,-0.1934,-0.1925,-0.1868,-0.1853,-0.1805,-0.1795,-0.179,-0.1818,-0.174,-0.1797,-0.1803,-0.1807,-0.1903,-0.1916,-0.1928,0,0,0,0,0,-0.1878,-0.1927,-0.1914,-0.1924,-0.1961,-0.1996,-0.1998,-0.1967,-0.1938,-0.1948,-0.191,-0.1854,-0.1823,-0.1796,-0.179,-0.1818,-0.1795,-0.1801,-0.1807,-0.1897,-0.1914,-0.1928,0,0,0,0,0,0,-0.1888,-0.1924,-0.1909,-0.1965,-0.1975,-0.1981,-0.1998,-0.1981,-0.1966,-0.1955,-0.1888,-0.1874,-0.1881,-0.1849,-0.1821,-0.1856,-0.1801,-0.1807,-0.1872,-0.1887,-0.19,-0.1903,-0.1738,0,0,0,0,0,-0.1903,-0.1945,-0.1962,-0.2005,-0.2015,-0.2009,-0.2019,-0.2008,-0.1999,-0.1988,-0.1948,-0.1919,-0.1911,-0.1894,-0.1882,-0.1903,-0.1826,-0.1921,-0.1933,-0.1944,-0.1946,-0.1881,-0.1886,-0.183,-0.183,-0.183,0,0,-0.1914,-0.1944,-0.1963,-0.2009,-0.2015,-0.2056,-0.2005,-0.2039,-0.206,-0.1981,-0.1991,-0.1964,-0.193,-0.1947,-0.1948,-0.1915,-0.1915,-0.1952,-0.1961,-0.1956,-0.1887,-0.1892,-0.1896,-0.1834,-0.1833,-0.1832,0,0,-0.1978,-0.199,-0.2047,-0.207,-0.2101,-0.21,-0.2113,-0.2125,-0.2108,-0.2133,-0.208,-0.2069,-0.206,-0.2031,-0.2019,-0.2101,-0.199,-0.2106,-0.2162,-0.2099,-0.2102,-0.2104,-0.198,-0.1969,-0.2105,-0.2106,-0.2106,0,-0.1981,-0.2064,-0.2066,-0.213,-0.2147,-0.2125,-0.2177,-0.2181,-0.2183,-0.217,-0.2147,-0.2127,-0.21,-0.2101,-0.2136,-0.2126,-0.2051,-0.2101,-0.2111,-0.2112,-0.2111,-0.1984,-0.1971,-0.2111,-0.2111,-0.211,-0.2109,0,-0.2094,-0.2148,-0.2187,-0.225,-0.2269,-0.2316,-0.2317,-0.2322,-0.2302,-0.229,-0.2283,-0.2249,-0.2219,-0.223,-0.2213,-0.2213,-0.2144,-0.2135,-0.2063,-0.2122,-0.1985,-0.197,-0.2119,-0.2117,-0.2115,-0.2114,0,0,-0.211,-0.2238,-0.2248,-0.2266,-0.2333,-0.234,-0.2393,-0.2401,-0.2379,-0.2396,-0.2356,-0.2391,-0.2344,-0.233,-0.2294,-0.2262,-0.22,-0.2213,-0.2207,-0.2071,-0.2009,-0.1944,-0.1919,-0.2189,-0.2188,-0.2188,-0.1899,0,-0.218,-0.2307,-0.2359,-0.2425,-0.2461,-0.2462,-0.2485,-0.2486,-0.2459,-0.2413,-0.2391,-0.2347,-0.2388,-0.2343,-0.2338,-0.2219,-0.2171,-0.2275,-0.1988,-0.1978,-0.1899,-0.1906,-0.1806,-0.1542,-0.1884,-0.1881,-0.1879,0,-0.2269,-0.2323,-0.2429,-0.2457,-0.2469,-0.2505,-0.2475,-0.2494,-0.2456,-0.2421,-0.2406,-0.2357,-0.2319,-0.2327,-0.2194,-0.2254,-0.2158,-0.2075,-0.2062,-0.1957,-0.1888,-0.1547,-0.15,-0.1493,-0.1855,-0.1857,-0.1858,0,-0.2242,-0.2354,-0.2423,-0.2449,-0.2499,-0.2511,-0.2513,-0.2494,-0.2433,-0.2398,-0.2324,-0.2309,-0.2212,-0.2162,-0.205,-0.2099,-0.1856,-0.1881,-0.1726,-0.1715,-0.1553,-0.1532,-0.1451,-0.1784,-0.1784,-0.1785,-0.1786,0,-0.2292,-0.2322,-0.2408,-0.2433,-0.24,-0.2475,-0.2412,-0.2408,-0.2359,-0.2247,-0.2306,-0.2189,-0.2169,-0.2043,-0.1992,-0.1796,-0.1803,-0.1719,-0.1648,-0.1584,-0.1571,-0.1496,-0.1532,-0.1774,-0.1777,-0.1779,-0.1781,0,-0.2238,-0.2345,-0.2357,-0.2406,-0.2391,-0.2352,-0.2284,-0.2215,-0.2234,-0.2082,-0.2055,-0.2022,-0.188,-0.1834,-0.1667,-0.1652,-0.1462,-0.144,-0.1345,-0.1273,-0.117,-0.1216,-0.1043,-0.1022,-0.121,-0.1207,-0.1205,0,-0.2222,-0.2246,-0.2254,-0.2188,-0.2197,-0.2143,-0.2068,-0.2104,-0.2034,-0.1953,-0.1859,-0.1735,-0.1601,-0.1378,-0.1319,-0.1175,-0.1253,-0.1028,-0.1148,-0.1139,-0.1137,-0.12,-0.1202,-0.0933,-0.0928,-0.0924,-0.0921,0,-0.2074,-0.2094,-0.2061,-0.1956,-0.1884,-0.1804,-0.1746,-0.1691,-0.1715,-0.1632,-0.1505,-0.1409,-0.1232,-0.1061,-0.0945,-0.0888,-0.1017,-0.0946,-0.0957,-0.0939,-0.0975,-0.0927,-0.1117,-0.0887,-0.0891,-0.0893,-0.0895,-0.0896,-0.1874,-0.1779,-0.1732,-0.1618,-0.1551,-0.1483,-0.1389,-0.1369,-0.1274,-0.115,-0.1165,-0.0956,-0.0873,-0.0704,-0.0669,-0.0599,-0.0711,-0.0603,-0.065,-0.0709,-0.0742,-0.0852,-0.0562,-0.0563,-0.0565,-0.0566,-0.0567,0,-0.1553,-0.1478,-0.1363,-0.1257,-0.1157,-0.1216,-0.1148,-0.1071,-0.0961,-0.0831,-0.0711,-0.0474,-0.0375,-0.0355,-0.0321,-0.0315,-0.0373,-0.0345,-0.0418,-0.0432,-0.05,-0.0549,-0.022,-0.022,-0.022,-0.022,-0.022,-0.022,-0.1359,-0.1155,-0.1126,-0.0896,-0.0852,-0.0712,-0.0681,-0.0618,-0.0533,-0.028,-0.0077,0.0015,-0.0024,-0.0123,-0.0167,-0.0186,-0.0256,-0.0221,-0.0309,-0.0378,-0.0408,-0.0437,-0.0492,-0.0157,-0.0157,-0.0205,-0.0205,-0.0205]},{"header":{"parameterUnit":"m.s-1","parameterCategory":2,"la1":30.2991,"la2":30.254,"lo1":-89.0895,"lo2":-89.0444,"dy":0.0017,"dx":0.0017,"nx":28,"ny":28,"refTime":"2023-09-07T09:00:00:Z","depth":"0","parameterNumber":3,"parameterNumberName":"V-component_of_CURRENTS"},"data":[0,0,0,0,0,0,0,0,0,0,0,0,0,0,0,0,0,0,0,0,0,0,0,0,0,0,0,0,0,0,0,0,0,0,0,0,0,0,0,0,0,0,0,0,0,0,0,0,0,0,0,0,0,0,0,0,0,0,-0.0855,-0.0854,0,-0.0782,-0.0781,-0.078,-0.0743,-0.0743,-0.0743,-0.0743,-0.0647,-0.0645,-0.0642,0,0,0,0,0,0,0,0,0,0,0,0,0,-0.084,-0.0841,-0.0855,-0.0854,-0.0853,-0.0782,-0.0781,-0.078,-0.0743,-0.0743,-0.0743,-0.0743,-0.0648,-0.0645,-0.0642,0,0,0,0,0,0,0,0,0,0,0,0,0,-0.0815,-0.0842,-0.0855,-0.0826,-0.0823,-0.0782,-0.0781,-0.078,-0.0743,-0.0743,-0.0743,-0.0743,-0.0649,-0.0645,-0.0642,-0.062,0,0,-0.063,-0.0629,0,0,0,0,0,0,0,0,-0.0817,-0.0816,-0.0831,-0.0828,-0.0824,-0.0772,-0.0741,-0.0725,-0.0743,-0.0774,-0.0743,-0.0743,-0.0687,-0.068,-0.0667,-0.0615,-0.0611,-0.063,-0.0628,-0.0626,-0.0625,0,0,0,0,0,0,0,-0.0819,-0.0818,-0.0826,-0.083,-0.0826,-0.0775,-0.0772,-0.0737,-0.0731,-0.0771,-0.0768,-0.076,-0.0685,-0.0671,-0.0664,-0.061,-0.063,-0.0627,-0.0624,-0.0623,-0.0531,-0.0531,0,0,0,0,0,0,-0.0834,-0.0821,-0.0829,-0.0824,-0.082,-0.0776,-0.0773,-0.0789,-0.0732,-0.0723,-0.076,-0.0758,-0.0677,-0.0669,-0.0661,-0.0634,-0.0626,-0.0622,-0.062,-0.0531,-0.0531,-0.0531,0,0,0,0,0,0,-0.0835,-0.0837,-0.0831,-0.0819,-0.0814,-0.0777,-0.0794,-0.0787,-0.0773,-0.0724,-0.0715,-0.0753,-0.0677,-0.0666,-0.0635,-0.063,-0.0621,-0.0617,-0.0531,-0.0531,-0.0531,-0.0578,0,0,0,0,0,0,-0.0835,-0.0838,-0.0851,-0.0821,-0.0816,-0.0815,-0.0794,-0.0786,-0.0768,-0.0766,-0.0715,-0.0706,-0.0676,-0.0641,-0.0632,-0.0624,-0.0614,-0.0532,-0.0531,-0.0531,-0.0577,-0.0579,-0.0582,0,0,0,0,0,-0.0835,-0.0863,-0.0853,-0.0853,-0.0838,-0.0815,-0.0808,-0.0779,-0.0768,-0.0766,-0.0733,-0.0708,-0.0632,-0.0638,-0.0627,-0.0618,-0.0532,-0.0531,-0.0531,-0.0576,-0.0579,-0.0582,0,0,0,0,0,0,-0.0868,-0.0861,-0.0849,-0.0875,-0.0846,-0.0809,-0.0804,-0.0782,-0.0754,-0.0754,-0.0707,-0.0696,-0.0668,-0.0636,-0.0644,-0.059,-0.0577,-0.0574,-0.0614,-0.0617,-0.0619,-0.0619,-0.0611,0,0,0,0,0,-0.0881,-0.0898,-0.0872,-0.0889,-0.0878,-0.084,-0.0825,-0.0808,-0.0779,-0.0766,-0.0729,-0.069,-0.0656,-0.0633,-0.0602,-0.057,-0.0514,-0.0556,-0.0559,-0.0561,-0.0553,-0.0457,-0.0449,-0.0529,-0.0529,-0.0529,0,0,-0.0897,-0.0895,-0.0904,-0.0895,-0.0872,-0.0867,-0.0832,-0.082,-0.0808,-0.076,-0.0735,-0.0701,-0.0652,-0.0622,-0.0605,-0.0594,-0.0513,-0.0561,-0.0563,-0.0553,-0.0455,-0.0447,-0.044,-0.0529,-0.0529,-0.0529,0,0,-0.0937,-0.0936,-0.0959,-0.0938,-0.0912,-0.089,-0.0889,-0.0851,-0.0826,-0.08,-0.0763,-0.0723,-0.0674,-0.0631,-0.0605,-0.0598,-0.0535,-0.0591,-0.0594,-0.0502,-0.0495,-0.0487,-0.0421,-0.0407,-0.0586,-0.0586,-0.0586,0,-0.0955,-0.0984,-0.0958,-0.0964,-0.0946,-0.0905,-0.0908,-0.0881,-0.0837,-0.0804,-0.0802,-0.0702,-0.0674,-0.0609,-0.0619,-0.0603,-0.0547,-0.059,-0.0504,-0.0496,-0.0487,-0.0421,-0.0405,-0.0588,-0.0588,-0.0587,-0.0587,0,-0.1005,-0.1018,-0.1026,-0.1024,-0.0998,-0.0999,-0.0951,-0.0923,-0.0891,-0.085,-0.078,-0.0728,-0.0659,-0.0651,-0.0639,-0.0564,-0.0544,-0.0525,-0.0497,-0.0482,-0.0414,-0.0396,-0.0591,-0.059,-0.059,-0.0589,0,0,-0.107,-0.1067,-0.1067,-0.1052,-0.1029,-0.1003,-0.0984,-0.0934,-0.0889,-0.0845,-0.0769,-0.0729,-0.0679,-0.0646,-0.0605,-0.0538,-0.0453,-0.0515,-0.0509,-0.0451,-0.0258,-0.0262,-0.0243,-0.0413,-0.041,-0.0407,-0.024,0,-0.1115,-0.114,-0.1121,-0.1114,-0.1111,-0.1051,-0.1021,-0.0962,-0.0902,-0.082,-0.0745,-0.067,-0.0681,-0.0632,-0.0571,-0.0477,-0.0407,-0.0501,-0.028,-0.0273,-0.0279,-0.0223,-0.0194,-0.0044,-0.0223,-0.022,-0.0218,0,-0.1172,-0.1171,-0.1194,-0.1128,-0.1116,-0.1108,-0.1012,-0.097,-0.0859,-0.0801,-0.0715,-0.0646,-0.0549,-0.0549,-0.0379,-0.0436,-0.0355,-0.0287,-0.0278,-0.0249,-0.0244,-0.0084,-0.0004,0.0048,-0.019,-0.0192,-0.0194,0,-0.1222,-0.1206,-0.1222,-0.1209,-0.1151,-0.1126,-0.1075,-0.0976,-0.0896,-0.0775,-0.0699,-0.0585,-0.0494,-0.0385,-0.0283,-0.0309,-0.0086,-0.0093,-0.0017,-0.0017,0.0068,0.007,0.0227,0.0048,0.0047,0.0047,0.0046,0,-0.1288,-0.1282,-0.1247,-0.1255,-0.1197,-0.1148,-0.1065,-0.0993,-0.0874,-0.0756,-0.0685,-0.0566,-0.0444,-0.0314,-0.0238,-0.0078,-0.0042,0.0003,0.004,0.0048,0.0046,0.0143,0.0145,0.0053,0.0052,0.0051,0.005,0,-0.1346,-0.1349,-0.1325,-0.1268,-0.1232,-0.1181,-0.1041,-0.0964,-0.0876,-0.0716,-0.067,-0.0518,-0.0354,-0.0245,-0.0048,-0.0003,0.0187,0.0186,0.0164,0.0194,0.0288,0.0285,0.0471,0.0533,0.0311,0.0312,0.0313,0,-0.1386,-0.14,-0.1319,-0.1262,-0.1238,-0.1148,-0.1068,-0.0966,-0.0875,-0.0672,-0.0589,-0.0413,-0.0258,-0.0012,0.0098,0.025,0.0278,0.0355,0.0305,0.0318,0.0345,0.032,0.0357,0.0402,0.0404,0.0405,0.0406,0,-0.1403,-0.1382,-0.1334,-0.1239,-0.1162,-0.1061,-0.0956,-0.0891,-0.0749,-0.0611,-0.0413,-0.0281,-0.0073,0.0116,0.0264,0.0341,0.0391,0.0385,0.044,0.0465,0.0416,0.0483,0.0238,0.0417,0.0416,0.0415,0.0415,0.0414,-0.137,-0.1308,-0.1235,-0.1136,-0.106,-0.0971,-0.088,-0.0754,-0.059,-0.0322,-0.0253,0.0044,0.0165,0.038,0.0436,0.0543,0.0507,0.0584,0.0593,0.0575,0.06,0.0348,0.0531,0.0531,0.053,0.053,0.053,0,-0.1251,-0.1182,-0.111,-0.0995,-0.093,-0.0908,-0.0778,-0.0657,-0.0445,-0.0152,0.0082,0.0441,0.0557,0.064,0.0716,0.0761,0.076,0.0777,0.0773,0.0813,0.0653,0.0618,0.0777,0.0777,0.0777,0.0777,0.0777,0.0777,-0.1171,-0.1044,-0.1007,-0.0877,-0.0829,-0.0711,-0.0639,-0.0437,-0.0214,0.0272,0.0629,0.0856,0.0935,0.0876,0.0922,0.093,0.0994,0.0951,0.0996,0.0883,0.0865,0.0849,0.0819,0.1017,0.1017,0.1166,0.1168,0.1169]}],[{"header":{"parameterUnit":"m.s-1","parameterCategory":2,"la1":30.2991,"la2":30.254,"lo1":-89.0895,"lo2":-89.0444,"dy":0.0017,"dx":0.0017,"nx":28,"ny":28,"refTime":"2023-09-07T09:00:00:Z","depth":"2","parameterNumber":2,"parameterNumberName":"U-component_of_CURRENTS"},"data":[0,0,0,0,0,0,0,0,0,0,0,0,0,0,0,0,0,0,0,0,0,0,0,0,0,0,0,0,0,0,0,0,0,0,0,0,0,0,0,0,0,0,0,0,0,0,0,0,0,0,0,0,0,0,0,0,0,0,-0.1547,-0.1548,0,-0.1542,-0.1541,-0.154,-0.1544,-0.1545,-0.1546,-0.1547,-0.1679,-0.1682,-0.1684,0,0,0,0,0,0,0,0,0,0,0,0,0,-0.1496,-0.1496,-0.1547,-0.1548,-0.1549,-0.1542,-0.1541,-0.154,-0.1544,-0.1545,-0.1546,-0.1548,-0.1678,-0.1681,-0.1684,0,0,0,0,0,0,0,0,0,0,0,0,0,-0.1498,-0.1496,-0.1547,-0.1557,-0.1559,-0.1542,-0.1541,-0.154,-0.1543,-0.1545,-0.1547,-0.1548,-0.1677,-0.1681,-0.1685,-0.1676,0,0,-0.1697,-0.1698,0,0,0,0,0,0,0,0,-0.1498,-0.1498,-0.1555,-0.1557,-0.1558,-0.1554,-0.1572,-0.1596,-0.1543,-0.1539,-0.1547,-0.1549,-0.1655,-0.1661,-0.164,-0.1683,-0.1688,-0.1697,-0.1699,-0.1701,-0.1702,0,0,0,0,0,0,0,-0.1497,-0.1498,-0.1535,-0.1556,-0.1558,-0.154,-0.1542,-0.1575,-0.1583,-0.1539,-0.1542,-0.1557,-0.1656,-0.1637,-0.1644,-0.169,-0.1697,-0.17,-0.1702,-0.1704,-0.1763,-0.1762,0,0,0,0,0,0,-0.152,-0.1498,-0.1536,-0.1536,-0.1542,-0.1541,-0.1542,-0.1546,-0.158,-0.1588,-0.1555,-0.1557,-0.1629,-0.164,-0.1649,-0.1705,-0.1701,-0.1704,-0.1706,-0.1763,-0.1763,-0.1762,0,0,0,0,0,0,-0.1518,-0.1522,-0.1536,-0.1526,-0.1528,-0.1542,-0.1545,-0.1545,-0.1547,-0.1592,-0.1602,-0.1561,-0.1631,-0.1644,-0.1687,-0.1709,-0.1706,-0.1709,-0.1764,-0.1763,-0.1762,-0.1777,0,0,0,0,0,0,-0.1516,-0.1521,-0.1532,-0.1527,-0.1529,-0.1533,-0.1544,-0.1544,-0.1557,-0.1559,-0.16,-0.1612,-0.1633,-0.1681,-0.1691,-0.1714,-0.1712,-0.1765,-0.1764,-0.1762,-0.1778,-0.1777,-0.1776,0,0,0,0,0,-0.1514,-0.1514,-0.1532,-0.1537,-0.1543,-0.1534,-0.1531,-0.154,-0.1556,-0.1548,-0.158,-0.1612,-0.1679,-0.1684,-0.1696,-0.172,-0.1766,-0.1764,-0.1763,-0.1778,-0.1777,-0.1776,0,0,0,0,0,0,-0.1501,-0.1516,-0.1534,-0.1542,-0.1548,-0.1539,-0.1537,-0.1547,-0.1559,-0.1569,-0.1611,-0.1624,-0.1666,-0.1681,-0.1685,-0.1726,-0.1725,-0.1725,-0.1733,-0.1732,-0.1731,-0.1708,-0.1716,0,0,0,0,0,-0.1506,-0.1505,-0.1523,-0.1529,-0.1534,-0.1539,-0.1541,-0.1544,-0.1558,-0.1563,-0.1611,-0.1642,-0.166,-0.1689,-0.1709,-0.1741,-0.1719,-0.1758,-0.1757,-0.1757,-0.1742,-0.1739,-0.1737,-0.1756,-0.1756,-0.1756,0,0,-0.151,-0.1514,-0.152,-0.1527,-0.1529,-0.1534,-0.154,-0.1539,-0.1555,-0.158,-0.163,-0.1648,-0.1665,-0.1694,-0.1714,-0.1719,-0.173,-0.1755,-0.1755,-0.1739,-0.1737,-0.1735,-0.1734,-0.1755,-0.1756,-0.1756,0,0,-0.1497,-0.1515,-0.1509,-0.1519,-0.153,-0.1528,-0.1536,-0.1551,-0.1567,-0.1605,-0.162,-0.165,-0.1704,-0.1713,-0.1722,-0.1727,-0.1722,-0.1735,-0.1728,-0.1726,-0.1725,-0.1723,-0.1657,-0.165,-0.1741,-0.1741,-0.1741,0,-0.1499,-0.1504,-0.1506,-0.1509,-0.1524,-0.1533,-0.1538,-0.1549,-0.1584,-0.1608,-0.163,-0.168,-0.171,-0.1722,-0.1714,-0.1731,-0.1698,-0.1738,-0.1727,-0.1725,-0.1724,-0.1656,-0.1648,-0.1742,-0.1742,-0.1742,-0.1742,0,-0.148,-0.1505,-0.1501,-0.1513,-0.1519,-0.1521,-0.1547,-0.1575,-0.161,-0.1633,-0.1673,-0.1693,-0.1728,-0.1734,-0.1728,-0.1725,-0.1691,-0.1725,-0.1734,-0.1723,-0.1651,-0.1643,-0.1743,-0.1742,-0.1742,-0.1742,0,0,-0.143,-0.1478,-0.1481,-0.1511,-0.1524,-0.1529,-0.1558,-0.1584,-0.1615,-0.1659,-0.1685,-0.1715,-0.1732,-0.1736,-0.1738,-0.1722,-0.1677,-0.171,-0.1709,-0.165,-0.1613,-0.1547,-0.153,-0.1712,-0.1711,-0.1711,-0.1555,0,-0.1416,-0.1443,-0.1455,-0.1492,-0.1519,-0.1544,-0.1578,-0.1609,-0.1636,-0.167,-0.1687,-0.1712,-0.1732,-0.1736,-0.1731,-0.1687,-0.1659,-0.1711,-0.1626,-0.1622,-0.1572,-0.1521,-0.1414,-0.1263,-0.1547,-0.1545,-0.1544,0,-0.1392,-0.1422,-0.1455,-0.1525,-0.1534,-0.1556,-0.1602,-0.1629,-0.1667,-0.1693,-0.1714,-0.1716,-0.1696,-0.1715,-0.1654,-0.1683,-0.1644,-0.1606,-0.1601,-0.1528,-0.154,-0.1326,-0.1237,-0.1529,-0.153,-0.1532,-0.1533,0,-0.1362,-0.1423,-0.1453,-0.1477,-0.1545,-0.1573,-0.1606,-0.1651,-0.166,-0.1694,-0.1683,-0.1696,-0.1672,-0.1649,-0.1589,-0.1616,-0.1488,-0.1535,-0.1429,-0.1422,-0.1305,-0.129,-0.1486,-0.1486,-0.1486,-0.1487,-0.1487,0,-0.1329,-0.1363,-0.1463,-0.148,-0.1526,-0.1588,-0.1609,-0.1653,-0.1674,-0.1656,-0.1696,-0.1649,-0.1652,-0.1584,-0.1555,-0.1443,-0.1479,-0.1391,-0.138,-0.1302,-0.1289,-0.1516,-0.1522,-0.1481,-0.1482,-0.1483,-0.1484,0,-0.1267,-0.1333,-0.1389,-0.1486,-0.151,-0.1549,-0.1584,-0.1591,-0.1644,-0.1601,-0.1598,-0.1585,-0.1501,-0.1471,-0.1393,-0.1376,-0.1299,-0.1258,-0.1129,-0.1106,-0.1231,-0.1239,-0.1106,-0.1103,-0.11,-0.1097,-0.1095,0,-0.1237,-0.1264,-0.1368,-0.1384,-0.142,-0.1478,-0.149,-0.1563,-0.1548,-0.154,-0.1495,-0.1425,-0.1334,-0.1199,-0.1147,-0.1055,-0.1164,-0.0934,-0.099,-0.119,-0.1193,-0.1206,-0.1218,-0.0815,-0.0811,-0.0808,-0.0805,0,-0.1169,-0.1214,-0.1241,-0.1284,-0.1314,-0.1329,-0.1361,-0.1349,-0.1403,-0.1372,-0.1295,-0.1223,-0.1094,-0.0941,-0.0859,-0.0821,-0.0948,-0.086,-0.1094,-0.0949,-0.0909,-0.0915,-0.0937,-0.0774,-0.0777,-0.0779,-0.0781,-0.0782,-0.1104,-0.1108,-0.1144,-0.116,-0.1182,-0.117,-0.1136,-0.1158,-0.1124,-0.106,-0.1081,-0.0951,-0.0892,-0.0687,-0.0626,-0.0606,-0.0687,-0.0684,-0.0697,-0.0713,-0.0728,-0.0689,-0.0509,-0.051,-0.0512,-0.0513,-0.0514,0,-0.0997,-0.0998,-0.1008,-0.1017,-0.0972,-0.1032,-0.1015,-0.0954,-0.0874,-0.0858,-0.0786,-0.0635,-0.0515,-0.0486,-0.0375,-0.0356,-0.0392,-0.0369,-0.0413,-0.0441,-0.0467,-0.0474,-0.0184,-0.0184,-0.0183,-0.0183,0,0,-0.0949,-0.0902,-0.0901,-0.0801,-0.0794,-0.0702,-0.0668,-0.0612,-0.0578,-0.0489,-0.044,-0.0463,-0.0439,-0.0307,-0.0269,-0.0202,-0.0332,-0.0195,-0.0451,-0.0529,-0.0554,-0.0628,-0.0667,0,0,0,0,0]},{"header":{"parameterUnit":"m.s-1","parameterCategory":2,"la1":30.2991,"la2":30.254,"lo1":-89.0895,"lo2":-89.0444,"dy":0.0017,"dx":0.0017,"nx":28,"ny":28,"refTime":"2023-09-07T09:00:00:Z","depth":"2","parameterNumber":3,"parameterNumberName":"V-component_of_CURRENTS"},"data":[0,0,0,0,0,0,0,0,0,0,0,0,0,0,0,0,0,0,0,0,0,0,0,0,0,0,0,0,0,0,0,0,0,0,0,0,0,0,0,0,0,0,0,0,0,0,0,0,0,0,0,0,0,0,0,0,0,0,0.0009,0.001,0,0.0066,0.0067,0.0067,0.0117,0.0117,0.0118,0.0119,0.0251,0.0254,0.0257,0,0,0,0,0,0,0,0,0,0,0,0,0,-0.0039,-0.0039,0.0009,0.001,0.0011,0.0066,0.0067,0.0067,0.0117,0.0118,0.0118,0.0119,0.025,0.0253,0.0257,0,0,0,0,0,0,0,0,0,0,0,0,0,-0.0006,-0.0039,0.0009,0.0044,0.0047,0.0066,0.0067,0.0068,0.0116,0.0118,0.0119,0.012,0.0249,0.0253,0.0257,0.0261,0,0,0.027,0.0272,0,0,0,0,0,0,0,0,-0.0008,-0.0004,0.0038,0.0041,0.0046,0.0087,0.0098,0.0137,0.0116,0.0088,0.0119,0.012,0.0204,0.0212,0.0216,0.0268,0.0273,0.0271,0.0273,0.0275,0.0276,0,0,0,0,0,0,0,-0.001,-0.0006,0.003,0.0039,0.0043,0.0063,0.0068,0.0105,0.0139,0.0091,0.0095,0.0104,0.0206,0.0212,0.022,0.0275,0.027,0.0274,0.0277,0.0279,0.0358,0.0358,0,0,0,0,0,0,-0.0016,-0.0009,0.0028,0.0032,0.0023,0.0063,0.0069,0.0071,0.0137,0.0148,0.0103,0.0106,0.0204,0.0215,0.0225,0.0257,0.0275,0.0279,0.0281,0.0359,0.0358,0.0358,0,0,0,0,0,0,-0.0017,-0.0013,0.0026,0.0015,0.0022,0.0062,0.0065,0.0072,0.0086,0.0146,0.0158,0.0111,0.0205,0.0219,0.0255,0.0262,0.0281,0.0285,0.0359,0.0359,0.0358,0.0307,0,0,0,0,0,0,-0.0019,-0.0014,-0.0018,0.0014,0.0022,0.0034,0.0064,0.0072,0.0091,0.0095,0.0157,0.017,0.0207,0.0248,0.0259,0.0268,0.0288,0.036,0.0359,0.0358,0.0309,0.0304,0.03,0,0,0,0,0,-0.0021,-0.0029,-0.0019,-0.0014,0.0016,0.0033,0.0038,0.007,0.009,0.0089,0.0129,0.0168,0.0251,0.0251,0.0264,0.0274,0.036,0.0359,0.0358,0.0311,0.0305,0.03,0,0,0,0,0,0,-0.0053,-0.0024,-0.0012,-0.0011,0.0008,0.0042,0.0044,0.0068,0.0097,0.0103,0.0162,0.0177,0.0215,0.0244,0.0243,0.0293,0.0313,0.0314,0.0272,0.0267,0.0263,0.0251,0.0292,0,0,0,0,0,-0.0063,-0.0059,-0.0031,-0.003,-0.0025,0.0009,0.002,0.0039,0.0071,0.0085,0.0135,0.018,0.0218,0.0241,0.028,0.0304,0.0323,0.0319,0.0314,0.031,0.0308,0.0306,0.0301,0.0355,0.0355,0.0355,0,0,-0.0072,-0.0058,-0.0053,-0.0036,-0.0021,-0.0017,0.0017,0.0027,0.0039,0.0096,0.0129,0.0171,0.0221,0.025,0.0269,0.0278,0.031,0.0309,0.0306,0.0305,0.0304,0.0299,0.0294,0.0354,0.0354,0.0354,0,0,-0.0098,-0.0082,-0.0092,-0.0078,-0.006,-0.0038,-0.0036,-0.0,0.0021,0.005,0.0096,0.0136,0.0196,0.0232,0.0257,0.0251,0.0289,0.0266,0.0236,0.0233,0.0229,0.0225,0.0262,0.0262,0.0262,0.0261,0.0261,0,-0.0115,-0.0121,-0.0093,-0.0099,-0.0089,-0.0049,-0.0057,-0.0032,0.0015,0.0028,0.0054,0.0133,0.0187,0.0217,0.0222,0.0244,0.0253,0.0252,0.0227,0.0223,0.022,0.0259,0.0259,0.0259,0.0259,0.0259,0.026,0,-0.0144,-0.0151,-0.0156,-0.0148,-0.0132,-0.0135,-0.0095,-0.0077,-0.0042,-0.0014,0.0025,0.0087,0.0129,0.0159,0.0196,0.0204,0.0223,0.0222,0.0237,0.0211,0.0255,0.0256,0.0255,0.0256,0.0257,0.0257,0,0,-0.0184,-0.018,-0.0183,-0.0191,-0.0159,-0.0154,-0.0134,-0.0113,-0.0105,-0.0056,-0.0039,0.0033,0.006,0.009,0.0139,0.0153,0.0164,0.0176,0.0177,0.0209,0.0177,0.0198,0.0202,0.0143,0.0143,0.0142,0.0224,0,-0.0222,-0.0255,-0.0229,-0.0247,-0.0262,-0.0213,-0.02,-0.017,-0.0131,-0.0103,-0.0046,-0.001,0.0034,0.0057,0.0073,0.015,0.016,0.0144,0.0201,0.0204,0.0221,0.0202,0.0202,0.0273,0.0225,0.0225,0.0226,0,-0.0265,-0.0282,-0.0317,-0.031,-0.031,-0.0309,-0.0283,-0.0263,-0.0214,-0.0185,-0.0151,-0.0095,-0.0039,-0.001,0.0071,0.0053,0.0104,0.0156,0.016,0.0196,0.0226,0.0287,0.0277,0.0228,0.0228,0.0228,0.0227,0,-0.0324,-0.034,-0.0373,-0.037,-0.0357,-0.036,-0.0345,-0.0303,-0.0277,-0.024,-0.0208,-0.0161,-0.0105,-0.0063,0.0062,0.0056,0.0153,0.0155,0.022,0.0225,0.0246,0.0252,0.018,0.018,0.018,0.018,0.018,0,-0.0375,-0.04,-0.0413,-0.043,-0.0463,-0.0426,-0.0434,-0.0413,-0.0361,-0.0321,-0.0264,-0.0207,-0.0121,-0.0037,0.0039,0.0146,0.0126,0.0217,0.0236,0.0232,0.0235,0.0208,0.021,0.0183,0.0182,0.0182,0.0181,0,-0.0433,-0.0439,-0.0484,-0.0496,-0.0498,-0.0525,-0.0486,-0.0474,-0.0429,-0.0369,-0.0351,-0.0236,-0.0126,-0.0028,0.0083,0.0136,0.0223,0.0257,0.0271,0.0289,0.0307,0.0305,0.0335,0.0337,0.0338,0.0338,0.0339,0,-0.0472,-0.0504,-0.0544,-0.0562,-0.0571,-0.0587,-0.0578,-0.0529,-0.049,-0.0367,-0.0328,-0.0208,-0.0091,0.0077,0.017,0.0285,0.0271,0.0341,0.0321,0.0302,0.0317,0.0314,0.0312,0.0349,0.0349,0.035,0.035,0,-0.0545,-0.056,-0.059,-0.063,-0.0642,-0.0637,-0.0613,-0.0584,-0.0489,-0.0409,-0.0268,-0.0164,0.0006,0.0149,0.0273,0.0329,0.0318,0.0356,0.0321,0.03,0.0317,0.0332,0.0328,0.0356,0.0355,0.0355,0.0355,0.0354,-0.0593,-0.0634,-0.0664,-0.0688,-0.0691,-0.0663,-0.0635,-0.0563,-0.0477,-0.0308,-0.0227,-0.0053,0.0057,0.0256,0.0333,0.0384,0.0386,0.0401,0.0398,0.0394,0.0372,0.0388,0.0439,0.0439,0.0439,0.0439,0.0439,0,-0.0645,-0.0669,-0.0705,-0.0722,-0.0706,-0.0697,-0.0625,-0.0554,-0.0421,-0.0257,-0.0105,0.003,0.0183,0.0275,0.0381,0.0445,0.042,0.0437,0.0404,0.04,0.0396,0.0371,0.044,0.0439,0.0439,0.0439,0,0,-0.0675,-0.0718,-0.0727,-0.0719,-0.0709,-0.0652,-0.0595,-0.0477,-0.0339,-0.0147,-0.0016,0.0118,0.023,0.0292,0.0367,0.0422,0.0391,0.0412,0.0411,0.0364,0.0359,0.038,0.0338,0,0,0,0,0]}],[{"header":{"parameterUnit":"m.s-1","parameterCategory":2,"la1":30.2991,"la2":30.254,"lo1":-89.0895,"lo2":-89.0444,"dy":0.0017,"dx":0.0017,"nx":28,"ny":28,"refTime":"2023-09-07T09:00:00:Z","depth":"4","parameterNumber":2,"parameterNumberName":"U-component_of_CURRENTS"},"data":[0,0,0,0,0,0,0,0,0,0,0,0,0,0,0,0,0,0,0,0,0,0,0,0,0,0,0,0,0,0,0,0,0,0,0,0,0,0,0,0,0,0,0,0,0,0,0,0,0,0,0,0,0,0,0,0,0,0,-0.0702,-0.0702,0,-0.074,-0.0741,-0.0741,-0.0755,-0.0755,-0.0754,-0.0754,-0.0775,-0.0776,-0.0777,0,0,0,0,0,0,0,0,0,0,0,0,0,-0.0654,-0.0654,-0.0702,-0.0702,-0.0703,-0.074,-0.0741,-0.0742,-0.0755,-0.0755,-0.0754,-0.0754,-0.0775,-0.0776,-0.0777,0,0,0,0,0,0,0,0,0,0,0,0,0,-0.0682,-0.0655,-0.0702,-0.0713,-0.0715,-0.074,-0.0741,-0.0742,-0.0755,-0.0755,-0.0754,-0.0754,-0.0775,-0.0776,-0.0777,-0.079,0,0,-0.078,-0.0781,0,0,0,0,0,0,0,0,-0.068,-0.0684,-0.0711,-0.0713,-0.0714,-0.0742,-0.0732,-0.0757,-0.0755,-0.074,-0.0754,-0.0754,-0.0762,-0.0765,-0.0774,-0.0791,-0.0792,-0.078,-0.0781,-0.0782,-0.0782,0,0,0,0,0,0,0,-0.0678,-0.0682,-0.0718,-0.0712,-0.0714,-0.0722,-0.0725,-0.0737,-0.0753,-0.0742,-0.0742,-0.0746,-0.0763,-0.0772,-0.0774,-0.0792,-0.078,-0.0781,-0.0782,-0.0783,-0.0842,-0.0843,0,0,0,0,0,0,-0.0672,-0.0681,-0.0716,-0.0719,-0.0696,-0.0723,-0.0727,-0.0734,-0.0753,-0.0756,-0.0746,-0.0746,-0.0771,-0.0773,-0.0775,-0.0817,-0.0782,-0.0783,-0.0783,-0.0841,-0.0842,-0.0843,0,0,0,0,0,0,-0.0671,-0.0675,-0.0715,-0.07,-0.0705,-0.0724,-0.0732,-0.0735,-0.0755,-0.0757,-0.0759,-0.0764,-0.0771,-0.0773,-0.0795,-0.0817,-0.0783,-0.0784,-0.084,-0.0842,-0.0843,-0.0886,0,0,0,0,0,0,-0.067,-0.0675,-0.0685,-0.07,-0.0706,-0.074,-0.0732,-0.0736,-0.0757,-0.0758,-0.0773,-0.0774,-0.0771,-0.0793,-0.0796,-0.0818,-0.0785,-0.0839,-0.0841,-0.0843,-0.0883,-0.0888,-0.0893,0,0,0,0,0,-0.0668,-0.0679,-0.0685,-0.069,-0.0717,-0.0741,-0.0745,-0.0757,-0.0758,-0.0773,-0.078,-0.0774,-0.0806,-0.0795,-0.0798,-0.0821,-0.0838,-0.084,-0.0842,-0.0881,-0.0887,-0.0893,0,0,0,0,0,0,-0.0664,-0.0682,-0.0689,-0.0705,-0.0727,-0.0743,-0.0756,-0.0766,-0.0786,-0.0788,-0.0787,-0.0789,-0.0812,-0.0813,-0.0801,-0.0843,-0.0821,-0.0824,-0.0849,-0.0855,-0.086,-0.0853,-0.0786,0,0,0,0,0,-0.0668,-0.0679,-0.0701,-0.0715,-0.0727,-0.0746,-0.0759,-0.077,-0.0785,-0.0794,-0.0805,-0.0814,-0.0823,-0.0835,-0.0841,-0.087,-0.0856,-0.0886,-0.0891,-0.0895,-0.0892,-0.0898,-0.0903,-0.085,-0.085,-0.085,0,0,-0.0669,-0.068,-0.0687,-0.0715,-0.073,-0.0755,-0.0753,-0.0779,-0.08,-0.0793,-0.0827,-0.083,-0.0832,-0.0858,-0.087,-0.0864,-0.0903,-0.0898,-0.0901,-0.0896,-0.0901,-0.0906,-0.091,-0.0852,-0.0851,-0.0851,0,0,-0.0673,-0.069,-0.0702,-0.0725,-0.0754,-0.0768,-0.078,-0.0809,-0.0824,-0.0855,-0.0851,-0.0869,-0.0891,-0.0898,-0.0902,-0.0939,-0.0922,-0.0945,-0.0974,-0.0981,-0.0985,-0.0989,-0.0973,-0.0975,-0.0956,-0.0956,-0.0956,0,-0.0678,-0.07,-0.0711,-0.0735,-0.0758,-0.0776,-0.0806,-0.0823,-0.0857,-0.0874,-0.087,-0.0905,-0.0907,-0.0936,-0.0947,-0.095,-0.0943,-0.0952,-0.0987,-0.099,-0.0993,-0.0976,-0.0978,-0.0958,-0.0958,-0.0958,-0.0957,0,-0.0695,-0.0721,-0.0733,-0.0768,-0.0791,-0.0823,-0.0849,-0.0877,-0.0895,-0.0914,-0.0948,-0.0953,-0.0975,-0.0982,-0.0975,-0.1004,-0.0988,-0.0986,-0.0971,-0.1001,-0.0981,-0.0982,-0.0961,-0.0961,-0.096,-0.0959,0,0,-0.0686,-0.0737,-0.0743,-0.077,-0.0819,-0.0838,-0.0876,-0.0918,-0.0944,-0.0972,-0.1002,-0.1022,-0.1029,-0.1032,-0.1034,-0.1042,-0.1053,-0.1027,-0.1026,-0.1009,-0.1055,-0.0963,-0.0955,-0.1061,-0.1062,-0.1062,-0.1031,0,-0.0704,-0.0754,-0.0774,-0.0824,-0.0857,-0.0889,-0.0922,-0.0959,-0.0986,-0.1017,-0.1028,-0.1053,-0.1048,-0.1061,-0.107,-0.1054,-0.1058,-0.1061,-0.103,-0.1029,-0.0942,-0.0954,-0.1064,-0.1031,-0.1031,-0.1032,-0.1032,0,-0.0716,-0.0751,-0.081,-0.0864,-0.0881,-0.0913,-0.0972,-0.1002,-0.1044,-0.1065,-0.1093,-0.1097,-0.1115,-0.11,-0.1097,-0.1101,-0.1081,-0.1066,-0.1064,-0.0962,-0.0938,-0.0996,-0.1032,-0.1032,-0.1032,-0.1032,-0.1032,0,-0.071,-0.0771,-0.0822,-0.0847,-0.0913,-0.0943,-0.0974,-0.1024,-0.1051,-0.1095,-0.1112,-0.1136,-0.1137,-0.1132,-0.1096,-0.1105,-0.107,-0.108,-0.0979,-0.0972,-0.1045,-0.1042,-0.1075,-0.1075,-0.1075,-0.1075,-0.1075,0,-0.0724,-0.076,-0.0827,-0.086,-0.0913,-0.0951,-0.1005,-0.1039,-0.1082,-0.1096,-0.1135,-0.1129,-0.1144,-0.1122,-0.1101,-0.1026,-0.1077,-0.0975,-0.0958,-0.1063,-0.1062,-0.1045,-0.1042,-0.1074,-0.1074,-0.1075,-0.1075,0,-0.0707,-0.076,-0.0815,-0.089,-0.0917,-0.0951,-0.1017,-0.1041,-0.1091,-0.1105,-0.1116,-0.1127,-0.1084,-0.1079,-0.1047,-0.1013,-0.0967,-0.0929,-0.1021,-0.1012,-0.0865,-0.0865,-0.0823,-0.0819,-0.0817,-0.0814,-0.0812,0,-0.0702,-0.0739,-0.0825,-0.0858,-0.0896,-0.0953,-0.0986,-0.1045,-0.1054,-0.1077,-0.1061,-0.1044,-0.1033,-0.0912,-0.0923,-0.0876,-0.0864,-0.0849,-0.0876,-0.0851,-0.084,-0.0845,-0.0848,-0.0807,-0.0807,-0.0806,-0.0805,0,-0.0693,-0.0731,-0.0773,-0.0837,-0.0883,-0.0918,-0.0957,-0.0958,-0.0992,-0.1051,-0.097,-0.0933,-0.0871,-0.0831,-0.0794,-0.0765,-0.087,-0.0819,-0.0826,-0.0851,-0.0832,-0.0825,-0.0832,-0.0795,-0.0796,-0.0797,-0.0798,0,-0.0672,-0.0695,-0.0753,-0.0792,-0.0842,-0.0841,-0.0881,-0.0865,-0.0879,-0.0897,-0.0857,-0.083,-0.0838,-0.0769,-0.0734,-0.0698,-0.0696,-0.0692,-0.0706,-0.0717,-0.0697,-0.0659,-0.0547,0,0,0,0,0,-0.064,-0.0661,-0.0702,-0.073,-0.0765,-0.0781,-0.0834,-0.0864,-0.0895,-0.0811,-0.0831,-0.0762,-0.0692,-0.0683,-0.0621,-0.0697,-0.071,-0.0626,-0.0717,-0.0738,-0.075,-0.0736,0,0,0,0,0,0,-0.0621,-0.0666,-0.0678,-0.0652,-0.0645,-0.0667,-0.0687,-0.0717,-0.0674,-0.0711,-0.0669,-0.0709,-0.0649,-0.0692,-0.0595,-0.0596,-0.0638,-0.0625,-0.0623,-0.0731,-0.0742,-0.0752,-0.0742,0,0,0,0,0]},{"header":{"parameterUnit":"m.s-1","parameterCategory":2,"la1":30.2991,"la2":30.254,"lo1":-89.0895,"lo2":-89.0444,"dy":0.0017,"dx":0.0017,"nx":28,"ny":28,"refTime":"2023-09-07T09:00:00:Z","depth":"4","parameterNumber":3,"parameterNumberName":"V-component_of_CURRENTS"},"data":[0,0,0,0,0,0,0,0,0,0,0,0,0,0,0,0,0,0,0,0,0,0,0,0,0,0,0,0,0,0,0,0,0,0,0,0,0,0,0,0,0,0,0,0,0,0,0,0,0,0,0,0,0,0,0,0,0,0,-0.0061,-0.0061,0,-0.0041,-0.0041,-0.004,-0.001,-0.0009,-0.0009,-0.0008,0.0024,0.0025,0.0025,0,0,0,0,0,0,0,0,0,0,0,0,0,-0.0068,-0.0068,-0.0061,-0.0061,-0.0061,-0.0041,-0.0041,-0.004,-0.001,-0.0009,-0.0009,-0.0008,0.0024,0.0025,0.0025,0,0,0,0,0,0,0,0,0,0,0,0,0,-0.0057,-0.0068,-0.0061,-0.0044,-0.0042,-0.0041,-0.0041,-0.004,-0.001,-0.0009,-0.0009,-0.0008,0.0024,0.0025,0.0025,0.0015,0,0,0.0027,0.0027,0,0,0,0,0,0,0,0,-0.0058,-0.0057,-0.0047,-0.0045,-0.0043,-0.0028,-0.0031,-0.0021,-0.001,-0.0021,-0.0008,-0.0008,0.0007,0.0009,0.0012,0.0016,0.0018,0.0027,0.0028,0.0028,0.0028,0,0,0,0,0,0,0,-0.0059,-0.0058,-0.0053,-0.0047,-0.0044,-0.0035,-0.0033,-0.0029,-0.0011,-0.002,-0.0018,-0.0017,0.0008,0.0011,0.0013,0.0018,0.0027,0.0028,0.0028,0.0028,0.0034,0.0034,0,0,0,0,0,0,-0.0064,-0.0059,-0.0053,-0.0052,-0.005,-0.0036,-0.0033,-0.0033,-0.0011,-0.0007,-0.0018,-0.0016,0.001,0.0012,0.0014,0.0028,0.0028,0.0028,0.0029,0.0034,0.0034,0.0034,0,0,0,0,0,0,-0.0064,-0.0064,-0.0054,-0.0055,-0.0053,-0.0036,-0.0036,-0.0033,-0.0028,-0.0009,-0.0005,-0.0016,0.0011,0.0014,0.0021,0.0029,0.0029,0.0029,0.0034,0.0034,0.0034,0.004,0,0,0,0,0,0,-0.0064,-0.0064,-0.0065,-0.0056,-0.0054,-0.0055,-0.0037,-0.0033,-0.0029,-0.0026,-0.0007,-0.0003,0.0011,0.002,0.0022,0.003,0.003,0.0035,0.0034,0.0034,0.004,0.004,0.004,0,0,0,0,0,-0.0065,-0.0071,-0.0066,-0.0065,-0.0056,-0.0055,-0.0053,-0.0038,-0.0029,-0.003,-0.0014,-0.0003,0.0019,0.002,0.0022,0.0031,0.0035,0.0034,0.0034,0.004,0.004,0.004,0,0,0,0,0,0,-0.0075,-0.0068,-0.0062,-0.0065,-0.0061,-0.005,-0.005,-0.0042,-0.0031,-0.0027,-0.0008,-0.0003,0.0006,0.0012,0.0013,0.0029,0.0029,0.0029,0.0033,0.0032,0.0032,0.0033,0.003,0,0,0,0,0,-0.0079,-0.0082,-0.0073,-0.0078,-0.0075,-0.0064,-0.0062,-0.0054,-0.0043,-0.0037,-0.0023,-0.0009,0.0004,0.0013,0.0021,0.0028,0.0037,0.0033,0.0033,0.0033,0.0034,0.0049,0.005,0.0032,0.0032,0.0032,0,0,-0.0086,-0.0083,-0.0084,-0.0081,-0.0075,-0.0073,-0.006,-0.0061,-0.0054,-0.0037,-0.0024,-0.0012,0.0004,0.0016,0.0021,0.0024,0.0044,0.0032,0.0032,0.0033,0.0048,0.005,0.0052,0.0032,0.0032,0.0032,0,0,-0.0102,-0.0097,-0.0103,-0.0098,-0.0093,-0.0085,-0.0086,-0.0075,-0.0064,-0.0056,-0.0037,-0.002,-0.0008,0.0014,0.0025,0.0025,0.0039,0.0024,0.0031,0.0045,0.0047,0.0049,0.0071,0.0074,0.0029,0.0029,0.0029,0,-0.0109,-0.0115,-0.0106,-0.0107,-0.0103,-0.0091,-0.0093,-0.0081,-0.0068,-0.0058,-0.0053,-0.002,-0.0005,0.0022,0.0027,0.0027,0.0036,0.0033,0.0046,0.0048,0.005,0.0072,0.0076,0.0029,0.0029,0.0029,0.0029,0,-0.0122,-0.0129,-0.0132,-0.0127,-0.012,-0.0125,-0.0105,-0.0098,-0.0084,-0.0068,-0.0045,-0.0021,-0.0001,0.001,0.0021,0.0043,0.0046,0.0042,0.005,0.0052,0.0075,0.0079,0.0029,0.0029,0.0029,0.0029,0,0,-0.0142,-0.0142,-0.0145,-0.0146,-0.0132,-0.0131,-0.0117,-0.0101,-0.009,-0.0067,-0.0048,-0.0015,-0.0001,0.0011,0.003,0.0051,0.0078,0.0052,0.0053,0.0079,0.0115,0.0112,0.0117,0.0075,0.0075,0.0076,0.0129,0,-0.0158,-0.0171,-0.016,-0.0169,-0.0172,-0.015,-0.0138,-0.0118,-0.0096,-0.0075,-0.0037,-0.0018,-0.0,0.0009,0.0035,0.0061,0.0087,0.0065,0.0103,0.0105,0.0107,0.0121,0.0077,0.0132,0.0133,0.0133,0.0134,0,-0.0174,-0.0182,-0.0198,-0.0191,-0.0189,-0.0189,-0.0166,-0.0153,-0.0113,-0.0095,-0.0062,-0.0036,0.0004,0.0012,0.0072,0.0054,0.0085,0.011,0.0112,0.011,0.011,0.0126,0.0141,0.0141,0.014,0.014,0.0139,0,-0.0202,-0.0206,-0.0223,-0.0221,-0.0211,-0.021,-0.0199,-0.0164,-0.015,-0.0111,-0.0095,-0.0046,-0.0021,0.002,0.0077,0.007,0.0142,0.0137,0.017,0.017,0.0155,0.0152,0.018,0.018,0.018,0.018,0.018,0,-0.0225,-0.024,-0.0241,-0.0254,-0.0267,-0.0239,-0.024,-0.022,-0.0182,-0.0157,-0.0113,-0.0079,-0.002,0.0032,0.0076,0.0139,0.0142,0.0176,0.0184,0.0156,0.0153,0.0158,0.0155,0.0182,0.0182,0.0181,0.0181,0,-0.0262,-0.0263,-0.0286,-0.0286,-0.0289,-0.0298,-0.028,-0.027,-0.023,-0.0195,-0.0184,-0.0105,-0.0034,0.0031,0.0108,0.0138,0.0194,0.0217,0.0192,0.0196,0.0214,0.0211,0.0255,0.0255,0.0255,0.0255,0.0256,0,-0.0281,-0.0299,-0.0324,-0.0342,-0.035,-0.0354,-0.0354,-0.0311,-0.0286,-0.0203,-0.0182,-0.0103,-0.0046,0.0068,0.0128,0.0212,0.0222,0.0246,0.0224,0.0219,0.0222,0.0218,0.0214,0.0256,0.0256,0.0256,0.0256,0,-0.0325,-0.034,-0.0364,-0.04,-0.0415,-0.0414,-0.0399,-0.0378,-0.0306,-0.0274,-0.0169,-0.0094,-0.0005,0.0078,0.0145,0.0204,0.0222,0.0249,0.0248,0.0229,0.0222,0.0223,0.0219,0.0257,0.0257,0.0257,0.0257,0,-0.036,-0.0392,-0.0428,-0.0452,-0.0468,-0.0454,-0.044,-0.0381,-0.0342,-0.0228,-0.0195,-0.0085,-0.0017,0.0077,0.0139,0.0194,0.0203,0.0207,0.0209,0.0208,0.0173,0.0156,0.0184,0,0,0,0,0,-0.0392,-0.0435,-0.047,-0.0494,-0.05,-0.05,-0.0458,-0.0424,-0.0346,-0.0276,-0.0226,-0.0135,-0.0011,0.0048,0.0102,0.0123,0.0192,0.0186,0.0192,0.0263,0.0262,0.0228,0,0,0,0,0,0,-0.0417,-0.0471,-0.0488,-0.0513,-0.0522,-0.052,-0.0485,-0.0431,-0.0371,-0.0288,-0.0219,-0.015,-0.0034,-0.0055,0.009,0.011,0.0116,0.0252,0.0253,0.0264,0.0263,0.0262,0.0226,0,0,0,0,0]}]]